SL-14 DEB, 47080

Orbit data source: Space-Track

SL-14 DEB, 47080 is space debris in LEO originally from a launch on Thu, 15 Aug 1991 UTC launched from the Plesetsk Missile And Space Complex (PKMTR). Debris objects in space refer to the collection of defunct objects orbiting the Earth. Examples of debris include non-operational satellites, rocket bodies, and fragments generated from explosions, collisions, or faulty payload assembly.

Loading next visibility...
Identifier
47080, 1991-056DE
Orbit
LEO
Country
Flag of CISCIS
Related business
Manufacturer
Unknown
Mission
Spacecraft
Bus & Motor
Unknown
Mass
Unknown
Launch date (UTC)
1991-08-15 (35 years ago)
Launch vehicle
Unknown
Launch site
Plesetsk Missile And Space Complex (PKMTR)
Object type
Payload
Rocket body
Debris
Shape & HBR
Unknown shape, 0.1 m
Radar Cross Section
Small (<0.1 m²)

Expand to show TLE details & history
Last TLE update: 22 hours ago

TLE from 22 hours ago
0 SL-14 DEB
1 47080U 91056DE  26126.05264096  .00013113  00000-0  66895-2 0  9994
2 47080  82.5053 355.2155 0144915 281.4416  77.0514 14.10319373276067
Epoch: 2026-05-06T01:15Z
TLE epoch observation values (Epoch: 2026-05-06T01:15:48.178Z)
Latitude
0.00004°
Longitude
112.3461°
Altitude
839.165 km
Speed
7.445 km/s
True Right ascension
23h 40m 51s
True Declination
0° 00' 00"
Sunlit
Object was in daylight at epoch
Visualization orbit readout
Latitude
Unknown
Longitude
Unknown
Altitude
Unknown
Speed
Unknown
Apparent Right ascension
Unknown
Apparent Declination
Unknown
Sunlit
N/A
Visualization observer readout
Local Sidereal Time
07:40:44
Azimuth
Unknown
Elevation
Unknown
Doppler factor
Unknown
Orbital elements
Apogee altitude
960.22 km
Perigee altitude
750.571 km
Semi-major axis
7,233.533 km
Eccentricity
0.01449
Inclination
82.5053°
RAAN
355.2155°
Arg. of periapsis
281.4416°
True anomaly
78.67615°
Mean anomaly
77.0514°
Eccentric anomaly
77.86314°
Mean motion
3.52791 °/min
Orbital period
102.04 mins
BSTAR
0.0066895
Loading maneuver chart data...
Computing Atmospheric mass density...
Loading historical data...
Loading historical data...
Loading historical data...
Loading historical data...
Loading historical data...
Loading historical data...
Loading historical data...

Documentation

Showing up to 5 results
|